Probability
4 6 8 10 11 10 9 9 9 9 7 4 1 0 0 1 1 1 2 3 2 2 3 2 1 0 1 2 3 3 4 4 4 2 0 1 2 2 2 2 2 1 1
7 8 10 11 10 9 8 8 8 8 6 4 1 0 0 0 0 1 2 2 1 1 2 2 1 0 1 2 3 3 4 5 5 3 2 2 1 1 1 1 1 1 2
11 11 12 12 11 8 7 7 6 5 4 3 2 1 1 1 0 0 1 1 0 0 1 1 0 0 1 2 3 4 5 6 6 6 5 4 3 2 1 1 1 2 2
12 12 12 12 11 8 6 5 4 3 2 2 3 3 2 2 1 1 0 0 0 0 1 1 0 0 1 2 3 5 6 6 6 6 6 6 6 5 3 1 1 2 2
11 11 11 11 9 6 5 4 3 3 2 2 3 3 3 3 3 2 1 1 1 0 1 1 0 0 1 3 5 6 6 7 7 7 7 7 6 6 5 3 1 1 1
11 10 10 10 8 6 5 4 4 3 3 3 3 4 4 3 3 3 3 2 2 1 1 0 0 0 1 4 5 6 7 8 8 8 8 7 7 6 6 5 3 1 1
10 9 8 8 8 8 7 6 5 4 4 4 4 5 5 4 3 3 3 3 3 3 2 1 1 1 1 2 4 5 6 7 7 7 8 7 6 6 6 6 4 3 2
8 7 7 7 8 9 9 7 6 5 6 6 6 6 4 3 3 3 3 4 4 4 3 3 2 1 1 2 2 3 3 3 3 3 4 5 4 5 5 5 4 3 3
7 8 9 9 9 9 9 8 7 7 6 6 6 5 4 4 4 4 4 4 4 4 3 3 3 3 2 2 2 2 1 0 0 0 1 2 2 3 4 4 4 3 3
4 6 9 12 12 10 10 9 9 7 6 5 6 6 6 6 5 4 4 4 3 3 3 3 3 3 3 3 2 1 0 1 1 1 1 2 2 2 2 3 3 2 3
2 3 7 14 16 13 11 11 10 8 7 6 6 8 8 6 4 4 3 3 3 3 3 3 3 3 3 4 3 1 1 2 2 2 3 3 2 1 1 1 1 2 2
3 3 7 13 16 15 14 13 12 10 8 7 8 9 8 6 4 4 4 4 4 4 3 3 3 3 4 5 5 4 3 3 3 3 3 2 1 0 0 0 0 1 1
5 6 8 12 15 15 16 16 14 12 9 9 9 9 7 6 6 6 6 6 6 5 4 3 3 3 4 6 6 5 4 3 3 2 2 1 0 0 0 0 0 0 0
8 8 8 10 12 14 16 16 15 13 11 10 10 9 8 7 7 7 7 6 6 6 4 3 3 4 5 5 6 5 5 3 2 1 1 0 0 0 0 0 0 0 0
10 9 9 10 12 14 15 15 14 13 11 11 12 11 10 9 9 9 8 7 7 6 4 3 3 4 4 4 4 4 4 3 3 3 1 0 0 0 0 0 0 0 0
12 11 10 12 15 16 16 14 13 11 9 10 10 10 9 9 10 10 9 9 8 6 4 3 4 5 5 4 3 2 3 4 5 4 3 1 1 0 0 0 0 0 0
14 13 12 13 15 15 15 13 12 11 9 8 7 7 8 8 9 10 10 9 8 7 5 4 3 4 4 3 1 1 2 4 5 4 3 3 2 2 2 1 1 0 0
15 14 13 13 13 12 11 10 10 11 11 9 8 8 9 9 8 9 9 8 8 8 6 5 4 3 3 1 0 0 1 3 3 3 3 3 3 2 2 2 2 1 1
14 14 14 13 11 8 8 9 10 11 11 11 12 12 11 10 10 9 8 7 7 7 7 6 5 4 3 1 0 0 0 1 1 1 1 2 2 1 1 2 3 3 2
12 12 13 12 10 6 6 8 9 9 9 11 12 13 12 11 9 9 8 7 7 7 7 7 5 4 3 1 0 0 0 0 1 1 1 1 1 0 0 1 3 3 3
9 10 11 10 8 5 4 6 7 7 8 7 8 9 9 8 9 9 9 8 8 8 7 6 6 5 3 1 0 0 0 1 3 3 3 2 0 0 0 1 2 2 2
9 9 9 9 6 3 2 4 5 5 5 4 4 4 5 6 7 8 9 9 9 8 7 6 6 5 3 1 0 0 0 1 2 3 3 3 1 0 0 0 1 1 1
11 10 10 8 5 2 1 2 3 4 3 2 1 2 3 4 6 7 7 8 8 8 7 6 6 5 3 1 1 1 1 0 1 1 1 1 0 0 0 0 0 0 0
10 10 9 6 4 2 1 1 2 2 2 1 0 1 3 3 4 5 6 6 6 7 7 7 6 5 4 3 3 3 2 1 1 0 0 1 1 0 0 0 0 0 0
8 8 6 4 3 2 1 1 1 1 1 0 0 1 3 3 3 4 5 6 6 7 7 7 7 6 5 4 3 3 2 2 2 1 1 2 2 1 0 0 0 0 0
6 6 5 4 3 2 1 0 0 0 0 0 1 2 3 3 3 4 4 5 6 6 7 7 8 7 5 4 2 1 2 3 2 1 2 3 3 2 1 0 0 0 0
Wind_Speed
4 4 5 6 6 5 5 5 5 4 4 3 2 2 1 1 0 0 1 1 1 1 1 1 1 1 1 1 1 1 1 1 1 1 2 2 1 1 0 0 1 0 1
3 4 5 5 6 6 5 5 5 5 5 3 2 2 2 1 1 0 0 0 0 1 1 1 1 1 1 1 1 1 1 1 1 1 1 2 2 2 1 0 0 0 0
7 6 6 6 6 6 6 6 5 5 5 4 3 3 2 1 1 1 1 1 0 1 1 1 1 1 1 1 1 1 2 1 0 1 2 1 1 2 2 1 1 1 0
7 6 6 6 6 6 5 5 5 5 4 4 4 4 3 2 2 1 0 1 1 1 1 1 1 1 1 1 1 1 1 2 1 0 1 1 2 1 1 2 2 1 1
8 8 8 7 6 5 5 4 4 4 4 4 5 4 3 2 1 1 1 0 1 0 0 1 1 1 1 1 1 1 1 1 1 1 1 1 1 1 1 1 2 2 2
8 7 6 5 5 5 5 5 5 4 4 5 5 5 5 4 3 2 1 1 0 0 0 1 1 1 1 1 1 1 1 1 1 1 1 1 1 1 1 1 2 2 2
8 8 7 7 6 7 6 6 6 4 4 5 5 5 5 5 5 4 3 2 1 1 1 1 1 1 1 1 1 1 1 1 1 1 1 1 1 1 1 1 1 1 2
6 7 8 8 8 8 7 6 6 5 4 5 5 4 5 4 3 3 3 3 2 2 1 1 1 1 1 1 1 1 1 1 1 1 1 1 1 1 2 2 2 1 1
6 6 6 6 6 7 7 7 6 5 4 4 4 4 4 4 3 3 3 2 2 2 2 2 2 1 1 1 2 1 1 1 1 1 1 1 0 0 1 1 2 2 1
4 5 5 5 5 6 5 5 5 5 4 3 3 4 4 4 3 3 3 3 2 2 2 2 2 2 1 1 1 1 1 1 0 0 1 0 0 0 0 1 1 1 2
5 5 5 5 5 5 5 5 5 4 4 4 3 3 3 3 3 3 3 2 2 2 2 2 2 2 1 1 1 1 1 1 0 0 1 0 0 0 0 0 1 1 1
4 4 5 5 5 5 5 5 5 5 4 4 3 3 3 3 3 3 2 2 2 2 2 2 2 1 1 1 2 1 1 1 1 0 1 0 0 1 0 0 0 0 1
4 4 5 5 5 5 5 5 5 4 4 4 4 3 3 3 3 3 2 2 2 2 2 2 2 1 1 1 1 2 1 1 1 1 1 1 1 0 0 1 0 0 0
4 4 4 4 4 4 4 4 4 4 4 4 4 3 2 3 3 3 3 3 3 2 2 2 2 2 2 2 2 2 1 1 1 1 1 1 2 2 1 1 1 1 1
4 4 4 3 4 4 4 4 4 3 3 3 3 3 2 2 3 3 3 3 3 3 2 2 2 2 2 2 2 2 2 1 1 1 1 1 1 2 2 1 1 2 1
5 4 3 3 4 4 5 4 3 3 3 4 3 2 2 2 2 3 3 3 2 2 2 2 2 2 3 2 3 3 2 2 2 1 1 1 1 1 1 2 2 3 3
5 5 5 5 5 5 5 5 4 4 4 3 2 2 2 3 2 3 3 3 3 3 3 3 3 3 4 4 4 4 3 2 2 2 2 1 1 1 1 1 1 1 2
4 4 4 4 3 3 3 3 4 4 3 3 2 2 2 2 2 2 3 4 3 3 3 3 4 4 4 4 5 4 3 3 3 3 3 3 2 2 2 2 1 1 2
3 3 3 3 3 3 4 4 4 3 3 2 2 2 3 2 2 3 4 3 3 3 3 3 3 4 4 5 5 5 3 3 3 3 3 3 4 4 4 3 2 2 2
1 2 2 3 3 3 4 4 4 3 3 3 3 2 3 3 3 3 3 3 3 3 3 3 3 4 4 5 5 6 3 3 3 3 3 4 4 4 5 4 4 3 3
2 3 3 2 2 3 4 4 3 4 3 2 2 2 2 2 2 2 2 2 2 2 2 3 3 4 4 5 5 6 4 4 4 3 3 3 5 5 5 5 4 5 3
2 3 3 2 2 3 4 3 3 3 1 2 2 2 2 2 1 1 1 1 2 2 2 3 3 3 3 4 5 6 7 6 5 4 4 3 5 5 5 4 5 5 3
2 2 3 2 1 2 3 4 3 2 1 1 1 2 1 1 1 2 2 1 2 2 2 3 3 3 3 3 5 6 6 7 5 4 5 4 4 4 4 5 5 3 2
1 1 2 2 1 1 2 3 2 2 2 2 2 2 1 1 1 2 2 2 3 3 3 3 4 3 3 3 2 3 3 4 4 2 2 2 2 2 3 2 3 3 3
0 1 1 2 2 1 2 2 2 3 2 2 2 2 2 2 2 2 2 3 4 5 4 4 4 4 4 5 5 4 3 3 3 2 1 1 1 1 2 2 2 2 2
0 0 0 1 1 1 2 1 2 3 3 3 3 2 2 2 2 2 2 4 5 5 5 6 5 5 5 5 5 6 5 5 6 4 2 2 3 3 3 3 3 3 3
Wind_Direction
196 174 172 165 159 159 157 159 158 156 145 136 139 138 150 146 133 172 152 148 150 160 148 133 106 108 116 132 121 106 83 65 75 73 26 12 31 55 64 84 110 157 206
173 165 160 161 167 170 167 163 170 167 166 162 150 143 137 141 155 197 64 84 119 158 161 155 152 132 126 97 115 136 124 84 84 108 72 6 2 7 21 45 129 128 204
188 177 171 173 169 172 178 178 179 172 167 155 130 112 84 56 39 13 355 351 73 135 149 149 148 140 145 159 180 165 152 159 67 98 131 140 245 317 346 358 6 2 282
181 175 172 176 180 184 176 171 171 166 162 155 153 153 156 174 203 198 218 346 40 95 131 141 148 140 141 163 205 163 160 155 157 101 101 152 162 169 323 337 343 340 317
181 180 180 181 179 174 169 162 157 163 161 162 166 161 165 177 161 129 119 49 6 21 118 145 140 147 163 178 176 142 147 156 159 154 149 113 82 138 177 283 321 340 327
181 178 169 162 167 166 163 158 156 167 167 167 170 172 174 168 156 162 175 202 258 345 19 143 149 159 158 167 173 151 132 137 143 145 144 153 164 187 183 225 285 310 320
176 169 165 168 176 175 175 170 167 173 174 174 181 185 183 176 179 183 185 184 187 203 233 157 153 156 159 138 121 107 112 130 144 161 170 177 198 179 171 178 248 289 310
172 172 175 178 183 181 178 174 174 179 177 180 187 183 177 177 184 183 178 186 199 204 183 151 141 129 116 112 113 109 107 102 124 139 144 157 196 184 184 180 177 269 312
169 172 172 175 178 178 179 177 174 177 179 178 175 169 169 172 176 173 173 184 193 180 152 145 129 113 107 117 122 116 107 103 111 150 144 153 226 204 217 193 186 183 224
161 167 165 167 179 176 171 165 166 173 173 168 178 175 171 173 169 162 173 183 186 166 148 139 132 124 120 119 114 116 115 108 70 177 130 100 289 190 149 182 207 198 188
168 170 165 166 164 154 159 163 166 163 163 167 164 161 163 164 159 167 184 184 172 161 163 161 146 142 147 137 127 137 133 123 67 26 125 96 217 121 82 125 136 153 173
162 152 148 149 154 158 163 165 166 166 170 164 155 157 156 153 162 177 183 174 166 164 164 158 154 161 152 164 166 187 177 167 173 198 127 140 135 94 88 100 88 159 188
143 140 142 157 164 164 168 167 165 166 158 150 149 141 159 165 175 183 173 172 177 173 170 166 175 188 189 192 196 184 188 184 198 205 194 209 147 132 118 112 81 20 94
151 147 149 160 159 161 162 162 159 155 151 148 152 155 180 183 178 171 172 177 180 181 181 182 193 199 198 200 201 181 177 184 217 216 203 200 186 190 188 167 169 137 113
154 160 164 167 157 151 146 149 149 146 148 150 161 182 185 183 165 163 177 174 177 186 185 183 195 206 203 208 193 188 182 184 203 234 226 207 194 187 180 166 173 153 140
166 163 163 169 171 166 161 153 149 150 153 162 175 177 163 163 177 177 178 173 175 177 176 196 203 211 221 211 195 181 182 190 198 225 257 254 221 200 173 167 167 162 166
175 169 171 185 185 182 170 166 161 155 156 160 166 171 177 188 198 198 180 189 194 184 190 210 212 221 227 209 201 191 182 192 210 219 231 246 237 208 189 153 126 186 190
176 178 171 172 170 163 157 155 145 150 157 168 170 168 183 205 203 197 208 207 204 202 207 214 218 222 230 207 198 194 190 201 222 226 223 221 231 219 189 180 195 249 249
180 174 158 153 150 147 147 142 147 152 164 187 191 194 195 205 209 215 230 217 204 213 217 217 220 221 235 214 201 190 189 211 234 235 228 219 223 219 194 180 203 260 278
139 141 137 137 149 158 151 149 164 171 194 206 205 201 198 202 218 226 238 222 201 211 214 225 227 223 230 223 209 193 194 213 234 241 238 229 223 217 197 194 201 231 254
148 142 138 146 166 158 152 163 180 203 205 195 192 195 197 205 221 225 242 219 200 204 213 235 245 235 232 231 222 205 203 214 224 232 235 232 223 222 213 209 215 226 229
141 142 139 151 151 155 155 176 220 228 194 180 197 212 217 217 207 205 236 229 197 207 225 240 260 255 240 233 228 218 216 212 215 230 235 235 227 227 225 221 226 228 221
150 150 151 149 148 163 164 186 221 198 180 197 229 240 241 224 198 198 207 225 214 210 229 232 246 261 258 246 235 227 221 212 215 231 236 241 236 232 229 227 226 226 214
141 141 136 149 183 181 191 191 184 177 179 209 231 237 238 261 253 228 212 211 229 221 224 230 240 252 256 248 227 217 212 207 212 230 232 222 212 221 232 238 236 229 224
316 158 165 190 217 210 222 202 174 164 183 217 225 231 231 241 256 257 243 232 236 217 215 229 230 231 246 242 217 205 209 202 193 178 193 196 206 231 252 254 246 234 228
6 54 180 221 251 251 258 242 185 171 178 204 220 222 223 235 250 262 291 272 252 244 232 233 231 236 238 241 229 220 209 197 172 165 200 219 225 232 238 242 245 239 235